GW2918 Weather Reports


time (UTC)temp
F
wind
direction
speed
knots
gust
knots
rain 1hr
in
rain 24hr
in
rain mn
in
humidity
%
barometer
mb
20260502130704 42 12 3.5 4.3 0.00 0.01 0.01 71 1014.0
20260502123653 41 37 1.7 7.8 0.00 0.01 0.01 78 1014.0
20260502122652 41 49 0.0 4.3 0.00 0.01 0.01 78 1013.8
20260502121647 40 22 0.9 5.2 0.00 0.01 0.01 83 1013.8
20260502120646 40 16 1.7 7.8 0.00 0.01 0.01 82 1014.0
20260502115641 39 57 2.6 4.3 0.00 0.01 0.01 82 1013.8
20260502114639 39 42 1.7 3.5 0.00 0.01 0.01 84 1013.7
20260502113634 39 56 3.5 5.2 0.00 0.01 0.01 85 1013.7
20260502112630 38 51 1.7 5.2 0.00 0.01 0.01 84 1013.8
20260502111630 38 54 6.1 7.0 0.00 0.01 0.01 83 1013.8
20260502110625 38 73 3.5 5.2 0.00 0.01 0.01 89 1013.6
20260502105620 38 88 4.3 5.2 0.00 0.01 0.01 91 1013.6
20260502104620 35 70 4.3 4.3 0.00 0.01 0.01 93 1013.3
20260502103615 35 64 3.5 5.2 0.00 0.01 0.01 95 1013.4
20260502102615 35 54 3.5 7.8 0.00 0.01 0.01 96 1013.1
20260502101615 35 54 6.1 7.8 0.00 0.01 0.01 98 1013.5
20260502100612 35 70 3.5 5.2 0.00 0.01 0.01 98 1013.3
20260502090557 36 64 3.5 5.2 0.00 0.01 0.01 97 1012.6
20260502071533 36 18 3.5 5.2 0.00 0.01 0.01 95 1012.6
20260502070529 36 312 3.5 13.0 0.02 0.01 0.01 96 1012.4
20260502065525 38 348 3.5 9.6 0.02 0.00 0.00 99 1012.1
20260502064521 39 48 2.6 5.2 0.00 0.00 0.00 99 1011.9
20260502063521 39 252 1.7 3.5 0.00 0.00 0.00 99 1012.3
20260502062521 39 62 4.3 5.2 0.00 0.00 0.00 99 1011.8
20260502061517 39 57 2.6 5.2 0.00 0.00 0.00 99 1012.1
20260502060515 39 22 5.2 5.2 0.00 0.00 0.00 99 1012.0
20260502055515 39 36 5.2 6.1 0.00 0.00 0.00 99 1011.9
20260502054513 39 65 3.5 5.2 0.00 0.00 0.00 99 1012.1
20260502053512 39 44 2.6 5.2 0.00 0.00 0.00 99 1012.4
20260502052508 40 21 1.7 4.3 0.00 0.00 0.00 99 1012.4
20260502051504 40 246 1.7 2.6 0.00 0.00 0.00 99 1012.3
20260502050503 41 53 2.6 3.5 0.00 0.00 0.00 99 1012.0
20260502045503 41 61 2.6 4.3 0.00 0.00 0.00 99 1012.0
20260502044502 41 60 1.7 3.5 0.00 0.00 0.00 99 1012.3
20260502043456 41 81 1.7 1.7 0.00 0.00 0.00 99 1012.1
20260502042453 40 91 1.7 2.6 0.00 0.00 0.00 99 1012.1
20260502041448 40 91 0.0 2.6 0.00 0.00 0.00 99 1012.0
20260502040447 41 88 1.7 2.6 0.00 0.00 0.00 99 1012.0
20260502035445 41 61 1.7 2.6 0.00 0.15 0.15 99 1012.0
20260502034442 41 74 1.7 2.6 0.00 0.15 0.15 99 1012.1
20260502033443 41 80 1.7 2.6 0.00 0.15 0.15 99 1011.9
20260502032441 41 63 0.9 1.7 0.00 0.15 0.15 99 1011.9
20260502031437 41 174 0.0 1.7 0.02 0.15 0.15 99 1012.1
20260502030433 41 7 1.7 2.6 0.00 0.15 0.15 99 1011.8
20260502025433 42 49 0.0 1.7 0.00 0.15 0.15 99 1011.9
20260502024429 42 19 0.9 1.7 0.02 0.15 0.15 99 1012.1
20260502023424 42 170 1.7 2.6 0.00 0.15 0.15 99 1012.1
20260502022423 42 222 1.7 2.6 0.02 0.15 0.15 99 1012.4
20260502021423 42 70 0.0 1.7 0.00 0.14 0.14 99 1012.3
20260502020419 42 222 1.7 2.6 0.02 0.14 0.14 99 1012.3
20260502015418 42 120 0.0 1.7 0.02 0.13 0.13 99 1012.3
20260502014418 42 22 0.0 1.7 0.00 0.13 0.13 99 1012.3
20260502013415 42 66 0.9 1.7 0.02 0.13 0.13 99 1012.0
20260502012411 42 22 1.7 1.7 0.00 0.13 0.13 99 1012.1
20260502011409 42 64 0.0 1.7 0.00 0.13 0.13 99 1011.8
20260502010409 42 44 0.0 1.7 0.00 0.13 0.13 99 1011.7
20260502005404 42 39 0.0 1.7 0.00 0.13 0.13 99 1011.7
20260502004403 42 12 0.9 1.7 0.00 0.13 0.13 99 1011.8
20260502003357 42 343 0.9 1.7 0.02 0.13 0.13 99 1011.8
20260502002357 42 43 0.9 1.7 0.00 0.12 0.12 99 1011.7
20260502001357 42 45 0.0 1.7 0.02 0.12 0.12 99 1011.6
20260502000354 42 53 0.0 1.7 0.07 0.12 0.12 99 1011.7
20260501235350 42 84 0.0 1.7 0.05 0.11 0.11 99 1011.5
20260501234349 42 47 0.0 1.7 0.00 0.10 0.10 99 1011.8
20260501233344 42 77 1.7 2.6 0.05 0.10 0.10 99 1011.6
20260501232343 42 33 0.9 1.7 0.05 0.09 0.09 99 1011.6
20260501231338 43 311 0.0 0.9 0.02 0.08 0.08 99 1011.7
20260501230335 43 342 0.0 1.7 0.02 0.08 0.08 99 1011.6
20260501225335 43 74 0.9 1.7 0.05 0.07 0.07 98 1011.7
20260501224334 43 125 1.7 2.6 0.07 0.07 0.07 98 1011.7
20260501223332 43 185 0.9 1.7 0.07 0.06 0.06 97 1011.7
20260501222332 44 34 1.7 3.5 0.05 0.04 0.04 96 1011.8
20260501221331 44 128 0.0 0.9 0.05 0.04 0.04 94 1011.7
20260501220326 44 157 1.7 1.7 0.02 0.02 0.02 92 1011.7
20260501215325 45 193 0.9 1.7 0.02 0.02 0.02 90 1011.5
20260501214322 45 173 0.0 2.6 0.02 0.02 0.02 89 1011.6
20260501213320 45 238 0.9 2.6 0.00 0.01 0.01 89 1011.4
20260501212319 45 185 0.9 1.7 0.02 0.01 0.01 88 1011.7
20260501211319 46 319 1.7 3.5 0.02 0.01 0.01 83 1011.5
20260501210319 46 341 2.6 5.2 0.00 0.00 0.00 81 1011.4
20260501205319 47 272 2.6 2.6 0.00 0.00 0.00 81 1011.3
20260501204318 47 163 0.9 1.7 0.00 0.00 0.00 83 1011.2
20260501203317 46 1 1.7 5.2 0.00 0.00 0.00 83 1011.5
20260501202316 47 185 1.7 4.3 0.02 0.00 0.00 79 1011.6
20260501201316 47 61 1.7 4.3 0.00 0.00 0.00 77 1011.8
20260501200315 47 37 0.9 2.6 0.00 0.00 0.00 75 1011.5
20260501195314 48 208 2.6 4.3 0.00 0.00 0.00 73 1011.5
20260501194313 48 241 4.3 5.2 0.00 0.00 0.00 69 1011.7
20260501193308 49 332 1.7 3.5 0.00 0.00 0.00 71 1011.5
20260501192308 49 280 3.5 4.3 0.00 0.00 0.00 67 1011.5
20260501191302 49 124 1.7 3.5 0.00 0.00 0.00 67 1011.4
20260501190300 50 173 0.0 6.1 0.00 0.00 0.00 61 1011.4
20260501185258 51 236 1.7 4.3 0.00 0.00 0.00 57 1011.4
20260501184255 51 283 3.5 6.1 0.00 0.00 0.00 53 1011.4
20260501183255 52 265 4.3 7.8 0.00 0.00 0.00 52 1011.3
20260501182254 52 335 7.0 7.8 0.00 0.00 0.00 51 1011.2
20260501181253 52 225 3.5 6.1 0.00 0.00 0.00 51 1011.2
20260501180252 53 295 1.7 4.3 0.00 0.00 0.00 52 1011.3
20260501175252 52 250 1.7 6.1 0.00 0.00 0.00 49 1011.4
20260501174252 53 201 1.7 4.3 0.00 0.00 0.00 51 1011.3
20260501173253 52 215 2.6 5.2 0.00 0.00 0.00 51 1011.1
20260501172250 52 244 2.6 3.5 0.00 0.00 0.00 53 1011.2
20260501171248 53 195 1.7 7.0 0.00 0.00 0.00 53 1011.5
20260501170248 55 234 1.7 4.3 0.00 0.00 0.00 52 1011.3
20260501165243 53 342 0.9 8.7 0.00 0.00 0.00 51 1011.5
20260501164243 53 297 4.3 5.2 0.00 0.00 0.00 49 1011.8
20260501163243 51 275 2.6 4.3 0.00 0.00 0.00 52 1011.9
20260501162240 52 339 1.7 4.3 0.00 0.00 0.00 50 1012.0
20260501161241 51 212 5.2 8.7 0.00 0.00 0.00 47 1012.1
20260501160240 53 295 4.3 10.4 0.00 0.00 0.00 45 1012.1
20260501155240 53 187 2.6 7.8 0.00 0.00 0.00 47 1012.4
20260501154240 52 125 5.2 8.7 0.00 0.00 0.00 49 1012.4
20260501153235 51 77 3.5 7.8 0.00 0.00 0.00 52 1012.6
20260501152233 51 195 1.7 8.7 0.00 0.00 0.00 51 1012.6
20260501151233 49 66 7.0 9.6 0.00 0.00 0.00 56 1012.8
20260501150232 50 22 3.5 5.2 0.00 0.00 0.00 57 1012.8
20260501145226 50 278 4.3 7.0 0.00 0.00 0.00 59 1012.7
20260501144224 48 304 1.7 9.6 0.00 0.00 0.00 55 1012.9
20260501143223 49 203 2.6 10.4 0.00 0.00 0.00 62 1012.9
20260501142222 48 232 5.2 8.7 0.00 0.00 0.00 62 1012.9
20260501141221 47 202 3.5 4.3 0.00 0.00 0.00 68 1012.8
20260501140220 46 71 2.6 7.8 0.00 0.00 0.00 65 1012.9
20260501135219 47 201 5.2 5.2 0.00 0.00 0.00 65 1013.0